Location: Maccacari
(45.1333°N, 11.1333°E)
Time: 01:50:48
(UTC+00:00)

A-11 Canister half - Pass Details

Date: 28 January 2021
Orbit: 1525 x 1684 km, 47.3° (Epoch: 07 March)

Event Time Altitude Azimuth Distance (km) Brightness Sun altitude
Rises 15:04:36 0° 266° (W) 4,680 12.6 10.1°
Reaches altitude 10° 15:07:37 10° 268° (W) 3,707 12.1 9.6°
Maximum altitude 15:17:01 79° 355° (N) 1,589 9.2 8.3°
Drops below altitude 10° 15:26:44 10° 83° (E) 3,816 10.6 6.9°
Sets 15:29:53 0° 85° (E) 4,824 11.1 6.5°
